Weather History for Elkins, WV

Change the Weather History Date:

Sunday, June 23, 2013

  Actual Average Record
Temperature  
Mean Temperature 71 °F 68 °F  
Max Temperature 85 °F 80 °F 89 °F (1899)
Min Temperature 56 °F 57 °F 38 °F (1963)
Degree Days  
Heating Degree Days 0 1  
Month to date heating degree days 12 49  
Since 1 June heating degree days 12 49  
Since 1 July heating degree days 5786 5846  
Cooling Degree Days 6 4  
Month to date cooling degree days 59 61  
Year to date cooling degree days 84 84  
Since 1 June cooling degree days 59 61  
Growing Degree Days 20 (Base 50)    
Moisture  
Dew Point 59 °F    
Average Humidity 69    
Maximum Humidity 93    
Minimum Humidity 44    
Precipitation  
Precipitation T in 0.14 in 1.81 in (1907)
Month to date precipitation 2.92 3.28  
Year to date precipitation 19.31 22.49  
Snow  
Snow 0.00 in - - ()
Month to date snowfall 0.0  
Since 1 September snowfall 77.5  
Snow Depth 0.00 in    
Sea Level Pressure  
Sea Level Pressure 30.21 in    
Wind  
Wind Speed 2 mph (West)    
Max Wind Speed 8 mph    
Max Gust Speed 16 mph    
Visibility 6 miles    
Events Fog , Rain    
T = Trace of Precipitation, MM = Missing Value Source: NWS Daily Summary

Daily Weather History Graph

Daily Weather History Graph

Search for Another Location

Airport:

Trip Planner

Search our weather history database for the weather conditions in past years. The results will help you decide how hot, cold, wet, or windy it might be!

Date:

Astronomy

Jun. 23, 2013 Rise Set
Actual Time 5:54 AM EDT 8:48 PM EDT
Civil Twilight 5:22 AM EDT 9:20 PM EDT
Nautical Twilight 4:42 AM EDT 10:01 PM EDT
Astronomical Twilight 3:55 AM EDT 10:47 PM EDT
Moon 9:00 PM EDT (6/23) 6:09 AM EDT (6/23)
Length of Visible Light 15h 57m
Length of Day
14h 53m
Full, 100% of the Moon is Illuminated
Jun 23
Full
Jun 30
Last Quarter
Jul 8
New
Jul 15
First Quarter
Jul 22
Full

Hourly Weather History & Observations

Time (EDT) Temp. Heat Index Dew Point Humidity Pressure Visibility Wind Dir Wind Speed Gust Speed Precip Events Conditions
12:51 AM 63.0 °F - 60.1 °F 90% 30.21 in 10.0 mi Calm Calm - N/A   Clear
1:51 AM 62.1 °F - 59.0 °F 90% 30.19 in 10.0 mi Calm Calm - N/A   Clear
2:51 AM 60.1 °F - 57.9 °F 93% 30.19 in 9.0 mi Calm Calm - N/A   Clear
3:51 AM 60.1 °F - 57.9 °F 93% 30.18 in 7.0 mi Calm Calm - N/A   Clear
4:12 AM 59.0 °F - 57.2 °F 94% 30.21 in 2.0 mi Calm Calm - N/A   Clear
4:21 AM 59.0 °F - 57.2 °F 94% 30.21 in 7.0 mi Calm Calm - N/A   Clear
4:51 AM 57.9 °F - 55.9 °F 93% 30.19 in 8.0 mi Calm Calm - N/A   Clear
5:09 AM 57.2 °F - 55.4 °F 94% 30.22 in 1.5 mi Calm Calm - N/A   Clear
5:19 AM 57.2 °F - 55.4 °F 94% 30.23 in 4.0 mi Calm Calm - N/A   Clear
5:32 AM 57.2 °F - 55.4 °F 94% 30.23 in 2.5 mi Calm Calm - N/A   Partly Cloudy
5:38 AM 57.2 °F - 55.4 °F 94% 30.23 in 1.2 mi Calm Calm - N/A   Mostly Cloudy
5:48 AM 57.2 °F - 55.4 °F 94% 30.23 in 3.0 mi Calm Calm - N/A   Mostly Cloudy
5:51 AM 57.0 °F - 55.9 °F 96% 30.21 in 2.5 mi Calm Calm - N/A   Mostly Cloudy
6:03 AM 57.2 °F - 55.4 °F 94% 30.24 in 0.8 mi Calm Calm - N/A   Mist
6:13 AM 55.4 °F - 55.4 °F 100% 30.24 in 0.2 mi Calm Calm - N/A Fog Fog
6:19 AM 57.2 °F - 55.4 °F 94% 30.24 in 1.0 mi Calm Calm - N/A   Mist
6:21 AM 57.2 °F - 55.4 °F 94% 30.24 in 2.5 mi Calm Calm - N/A   Partly Cloudy
6:27 AM 57.2 °F - 55.4 °F 94% 30.24 in 1.0 mi Calm Calm - N/A   Mist
6:34 AM 57.2 °F - 55.4 °F 94% 30.24 in 0.5 mi Calm Calm - N/A Fog Fog
6:49 AM 59.0 °F - 57.2 °F 94% 30.25 in 0.2 mi Calm Calm - N/A Fog Fog
6:51 AM 59.0 °F - 57.9 °F 96% 30.23 in 0.2 mi Calm Calm - N/A Fog Fog
7:00 AM 59.0 °F - 57.2 °F 94% 30.25 in 1.0 mi Calm Calm - N/A   Mist
7:06 AM 60.8 °F - 57.2 °F 88% 30.25 in 3.0 mi Calm Calm - N/A   Scattered Clouds
7:51 AM 63.0 °F - 60.1 °F 90% 30.24 in 10.0 mi Calm Calm - N/A   Scattered Clouds
8:51 AM 66.9 °F - 61.0 °F 81% 30.25 in 10.0 mi Calm Calm - N/A   Mostly Cloudy
9:51 AM 69.1 °F - 63.0 °F 81% 30.25 in 10.0 mi Calm Calm - N/A   Partly Cloudy
10:51 AM 73.0 °F - 63.0 °F 71% 30.24 in 10.0 mi Calm Calm - N/A   Clear
11:51 AM 78.1 °F - 63.0 °F 60% 30.23 in 10.0 mi Calm Calm - N/A   Clear
12:51 PM 80.1 °F 81.2 °F 62.1 °F 54% 30.22 in 10.0 mi WNW 4.6 mph - N/A   Scattered Clouds
1:51 PM 82.0 °F 83.0 °F 62.1 °F 51% 30.19 in 10.0 mi Variable 5.8 mph - N/A   Clear
2:51 PM 82.0 °F 82.1 °F 59.0 °F 45% 30.17 in 10.0 mi West 4.6 mph - N/A   Mostly Cloudy
3:51 PM 84.0 °F 84.0 °F 60.1 °F 44% 30.15 in 10.0 mi NNW 5.8 mph - N/A   Clear
4:51 PM 84.0 °F 84.4 °F 61.0 °F 46% 30.14 in 10.0 mi West 4.6 mph - N/A   Clear
5:51 PM 81.0 °F 81.6 °F 60.1 °F 49% 30.14 in 10.0 mi WNW 4.6 mph - N/A   Partly Cloudy
6:51 PM 79.0 °F - 64.9 °F 62% 30.14 in 10.0 mi Calm Calm - N/A   Partly Cloudy
7:51 PM 75.9 °F - 66.0 °F 71% 30.15 in 10.0 mi SSW 3.5 mph - N/A   Scattered Clouds
8:51 PM 75.0 °F - 63.0 °F 66% 30.16 in 10.0 mi SSE 3.5 mph - 0.00 in Rain Light Rain
9:51 PM 70.0 °F - 63.0 °F 78% 30.18 in 10.0 mi Variable 3.5 mph - 0.00 in   Clear
10:51 PM 66.9 °F - 62.1 °F 84% 30.21 in 10.0 mi Calm Calm - N/A   Clear
11:51 PM 66.0 °F - 62.1 °F 87% 30.21 in 10.0 mi Calm Calm - N/A   Clear